Bigfork, MN

10:55 AM CDT on September 25, 2017 (GMT -0500)
Bigfork Municipal

Weather History for KFOZ - February, 2012

Change the Weather History Date:

Saturday, February 4, 2012

  Actual Average (KGPZ) Record (KGPZ)
Temperature  
Mean Temperature 22 °F -  
Max Temperature 37 °F 20 °F 53 °F (1991)
Min Temperature 6 °F -2 °F -38 °F (1936)
Degree Days  
Heating Degree Days 44    
Moisture  
Dew Point 18 °F    
Average Humidity 84    
Maximum Humidity 93    
Minimum Humidity 60    
Precipitation  
Precipitation 0.00 in - - ()
Sea Level Pressure  
Sea Level Pressure 30.35 in    
Wind  
Wind Speed 1 mph (WNW)    
Max Wind Speed 7 mph    
Max Gust Speed -    
Visibility 9 miles    
Events Fog    
Averages and records for this station are not official NWS values.
T = Trace of Precipitation, MM = Missing Value Source: NWS Daily Summary

Daily Weather History Graph

Daily Weather History Graph

Search for Another Location

Airport or City:

Trip Planner

Search our weather history database for the weather conditions in past years. The results will help you decide how hot, cold, wet, or windy it might be!

Date:

Astronomy

Feb. 04, 2012 Rise Set
Actual Time 7:38 AM CST 5:19 PM CST
Civil Twilight 7:05 AM CST 5:52 PM CST
Nautical Twilight 6:28 AM CST 6:29 PM CST
Astronomical Twilight 5:52 AM CST 7:05 PM CST
Moon 2:08 PM CST (2/4) 5:13 AM CST (2/4)
Length of Visible Light 10h 46m
Length of Day
9h 41m
Waxing Gibbous, 89% of the Moon is Illuminated
Feb 4
Waxing Gibbous
Feb 7
Full
Feb 14
Last Quarter
Feb 21
New
Feb 29
First Quarter

Hourly Weather History & Observations

Time (CST) Temp. Windchill Dew Point Humidity Pressure Visibility Wind Dir Wind Speed Gust Speed Precip Events Conditions
12:15 AM 17.6 °F - 15.8 °F 93% 30.43 in 0.5 mi Calm Calm - N/A Fog Light Freezing Fog
12:34 AM 19.4 °F - 15.8 °F 86% 30.43 in 0.2 mi Calm Calm - N/A Fog Light Freezing Fog
12:54 AM 17.6 °F - 15.8 °F 93% 30.43 in 0.5 mi Calm Calm - N/A Fog Light Freezing Fog
1:14 AM 17.6 °F - 15.8 °F 93% 30.43 in 2.5 mi Calm Calm - N/A   Overcast
1:34 AM 17.6 °F - 15.8 °F 93% 30.42 in 1.0 mi Calm Calm - N/A   Overcast
1:54 AM 17.6 °F - 15.8 °F 93% 30.42 in 5.0 mi Calm Calm - N/A   Clear
2:14 AM 19.4 °F - 15.8 °F 86% 30.41 in 7.0 mi Calm Calm - N/A   Mostly Cloudy
2:34 AM 19.4 °F - 17.6 °F 93% 30.41 in 7.0 mi Calm Calm - N/A   Overcast
2:54 AM 19.4 °F - 17.6 °F 93% 30.41 in 5.0 mi Calm Calm - N/A   Overcast
3:14 AM 19.4 °F - 15.8 °F 86% 30.40 in 2.5 mi Calm Calm - N/A   Overcast
3:34 AM 17.6 °F - 15.8 °F 93% 30.40 in 7.0 mi Calm Calm - N/A   Mostly Cloudy
3:54 AM 15.8 °F - 12.2 °F 86% 30.40 in 10.0 mi Calm Calm - N/A   Clear
4:15 AM 14.0 °F - 10.4 °F 86% 30.39 in 2.5 mi Calm Calm - N/A   Clear
4:34 AM 14.0 °F - 10.4 °F 86% 30.39 in 10.0 mi Calm Calm - N/A   Clear
4:54 AM 12.2 °F - 10.4 °F 92% 30.38 in 10.0 mi Calm Calm - N/A   Clear
5:14 AM 12.2 °F - 8.6 °F 85% 30.38 in 10.0 mi Calm Calm - N/A   Clear
5:34 AM 10.4 °F - 6.8 °F 85% 30.38 in 10.0 mi Calm Calm - N/A   Clear
5:54 AM 8.6 °F - 6.8 °F 92% 30.38 in 10.0 mi Calm Calm - N/A   Clear
6:15 AM 8.6 °F - 5.0 °F 85% 30.37 in 10.0 mi Calm Calm - N/A   Clear
6:34 AM 8.6 °F - 5.0 °F 85% 30.37 in 10.0 mi Calm Calm - N/A   Clear
6:54 AM 8.6 °F - 3.2 °F 79% 30.36 in 10.0 mi Calm Calm - N/A   Clear
7:14 AM 6.8 °F - 3.2 °F 85% 30.36 in 10.0 mi Calm Calm - N/A   Clear
7:34 AM 6.8 °F - 3.2 °F 85% 30.36 in 10.0 mi Calm Calm - N/A   Clear
7:54 AM 6.8 °F - 1.4 °F 79% 30.36 in 10.0 mi Calm Calm - N/A   Clear
8:15 AM 8.6 °F - 6.8 °F 92% 30.37 in 10.0 mi Calm Calm - N/A   Clear
8:34 AM 12.2 °F - 10.4 °F 92% 30.37 in 10.0 mi Calm Calm - N/A   Clear
8:54 AM 15.8 °F - 12.2 °F 86% 30.37 in 10.0 mi Calm Calm - N/A   Clear
9:14 AM 17.6 °F - 15.8 °F 93% 30.36 in 10.0 mi Calm Calm - N/A   Scattered Clouds
9:35 AM 19.4 °F - 17.6 °F 93% 30.35 in 10.0 mi Calm Calm - N/A   Scattered Clouds
9:55 AM 21.2 °F - 19.4 °F 93% 30.35 in 10.0 mi Calm Calm - N/A   Clear
10:14 AM 24.8 °F - 23.0 °F 93% 30.35 in 10.0 mi Calm Calm - N/A   Clear
10:55 AM 28.4 °F 24.6 °F 26.6 °F 93% 30.35 in 10.0 mi WNW 3.5 mph - N/A   Clear
11:14 AM 28.4 °F - 26.6 °F 93% 30.34 in 10.0 mi Calm Calm - N/A   Clear
11:34 AM 30.2 °F 24.3 °F 28.4 °F 93% 30.33 in 10.0 mi West 5.8 mph - N/A   Clear
11:54 AM 30.2 °F 24.3 °F 28.4 °F 93% 30.33 in 10.0 mi WNW 5.8 mph - N/A   Clear
12:14 PM 32.0 °F 26.4 °F 28.4 °F 87% 30.32 in 10.0 mi West 5.8 mph - N/A   Clear
12:34 PM 33.8 °F 30.8 °F 26.6 °F 75% 30.32 in 10.0 mi NW 3.5 mph - N/A   Clear
12:54 PM 35.6 °F 31.7 °F 26.6 °F 70% 30.31 in 10.0 mi West 4.6 mph - N/A   Clear
1:14 PM 35.6 °F 31.7 °F 24.8 °F 65% 30.31 in 10.0 mi WNW 4.6 mph - N/A   Clear
1:34 PM 37.4 °F 33.8 °F 24.8 °F 60% 30.31 in 10.0 mi NW 4.6 mph - N/A   Clear
1:54 PM 37.4 °F 34.9 °F 24.8 °F 60% 30.31 in 10.0 mi NNW 3.5 mph - N/A   Clear
2:14 PM 35.6 °F 29.9 °F 24.8 °F 65% 30.31 in 10.0 mi NW 6.9 mph - N/A   Clear
2:34 PM 35.6 °F 31.7 °F 23.0 °F 60% 30.30 in 10.0 mi WNW 4.6 mph - N/A   Clear
2:54 PM 35.6 °F 31.7 °F 23.0 °F 60% 30.30 in 10.0 mi NW 4.6 mph - N/A   Clear
3:14 PM 33.8 °F 29.6 °F 23.0 °F 65% 30.31 in 10.0 mi WNW 4.6 mph - N/A   Clear
3:34 PM 32.0 °F 26.4 °F 23.0 °F 69% 30.32 in 10.0 mi West 5.8 mph - N/A   Clear
3:54 PM 30.2 °F 23.4 °F 21.2 °F 69% 30.32 in 10.0 mi WNW 6.9 mph - N/A   Clear
4:14 PM 30.2 °F 24.3 °F 21.2 °F 69% 30.33 in 10.0 mi WNW 5.8 mph - N/A   Scattered Clouds
4:34 PM 28.4 °F 23.3 °F 21.2 °F 74% 30.33 in 10.0 mi West 4.6 mph - N/A   Mostly Cloudy
4:54 PM 28.4 °F 22.2 °F 23.0 °F 80% 30.33 in 10.0 mi WNW 5.8 mph - N/A   Overcast
5:14 PM 26.6 °F 22.6 °F 23.0 °F 86% 30.33 in 10.0 mi WNW 3.5 mph - N/A   Overcast
5:34 PM 26.6 °F 20.0 °F 23.0 °F 86% 30.33 in 10.0 mi WNW 5.8 mph - N/A   Overcast
5:54 PM 26.6 °F 21.2 °F 23.0 °F 86% 30.32 in 10.0 mi West 4.6 mph - N/A   Overcast
6:14 PM 26.6 °F 21.2 °F 23.0 °F 86% 30.32 in 10.0 mi WNW 4.6 mph - N/A   Overcast
6:34 PM 26.6 °F 22.6 °F 23.0 °F 86% 30.32 in 10.0 mi West 3.5 mph - N/A   Overcast
6:54 PM 26.6 °F 21.2 °F 23.0 °F 86% 30.32 in 10.0 mi NW 4.6 mph - N/A   Overcast
7:14 PM 26.6 °F 19.1 °F 23.0 °F 86% 30.32 in 10.0 mi NW 6.9 mph - N/A   Overcast
7:34 PM 26.6 °F 20.0 °F 23.0 °F 86% 30.33 in 10.0 mi NW 5.8 mph - N/A   Overcast
7:54 PM 26.6 °F 21.2 °F 23.0 °F 86% 30.33 in 10.0 mi NW 4.6 mph - N/A   Overcast
8:14 PM 26.6 °F 21.2 °F 23.0 °F 86% 30.33 in 10.0 mi NW 4.6 mph - N/A   Overcast
8:34 PM 26.6 °F 21.2 °F 23.0 °F 86% 30.33 in 10.0 mi NNW 4.6 mph - N/A   Overcast
8:54 PM 26.6 °F 22.6 °F 23.0 °F 86% 30.33 in 10.0 mi NW 3.5 mph - N/A   Overcast
9:14 PM 26.6 °F - 23.0 °F 86% 30.33 in 10.0 mi Calm Calm - N/A   Overcast
9:34 PM 26.6 °F - 23.0 °F 86% 30.33 in 10.0 mi Calm Calm - N/A   Overcast
9:54 PM 26.6 °F - 23.0 °F 86% 30.33 in 10.0 mi Calm Calm - N/A   Overcast
10:14 PM 26.6 °F 22.6 °F 23.0 °F 86% 30.33 in 10.0 mi NW 3.5 mph - N/A   Overcast
10:34 PM 26.6 °F - 23.0 °F 86% 30.33 in 10.0 mi Calm Calm - N/A   Overcast
10:54 PM 26.6 °F - 23.0 °F 86% 30.33 in 10.0 mi Calm Calm - N/A   Overcast
11:15 PM 26.6 °F - 23.0 °F 86% 30.32 in 10.0 mi Calm Calm - N/A   Overcast
11:34 PM 26.6 °F - 23.0 °F 86% 30.32 in 10.0 mi Calm Calm - N/A   Overcast
11:54 PM 24.8 °F - 23.0 °F 93% 30.33 in 10.0 mi Calm Calm - N/A   Overcast